Location: Shenandoah County Park
(38.9356°N, 78.4524°W)
Time: 06:57:19
(UTC-04:00)

Vanguard 1 Rocket - Pass Details

Date: 11 February 2023
Orbit: 652 x 4223 km, 34.3° (Epoch: 26 March)

Event Time Altitude Azimuth Distance (km) Brightness Sun altitude
Rises 15:03:22 0° 278° (W) 4,991 11.6 25.9°
Reaches altitude 10° 15:06:05 10° 274° (W) 4,347 11.5 25.6°
Maximum altitude 15:18:38 57° 200° (SSW) 3,318 11.2 23.9°
Drops below altitude 10° 15:41:04 10° 130° (SE) 7,271 11.9 20.6°
Sets 15:47:23 0° 127° (SE) 8,443 12.2 19.6°
